FW1140 Weather Reports


time (UTC)temp
C
wind
direction
speed
KPH
gust
KPH
rain 1hr
cm
rain 24hr
cm
rain mn
cm
humidity
%
barometer
mb
20260503194539 20 297 9.7 25.7 0.00 0.00 0.00 31 1005.4
20260503193039 20 309 17.7 30.6 0.00 0.00 0.00 33 1005.6
20260503191534 20 309 19.3 32.2 0.00 0.00 0.00 34 1005.8
20260503190034 20 290 22.5 30.6 0.00 0.00 0.00 36 1006.1
20260503184533 20 300 11.3 29.0 0.00 0.00 0.00 36 1006.3
20260503183050 20 325 20.9 27.4 0.00 0.00 0.00 36 1006.5
20260503181530 19 295 20.9 27.4 0.00 0.00 0.00 37 1006.7
20260503180029 19 322 20.9 27.4 0.00 0.00 0.00 36 1006.8
20260503174526 18 273 14.5 25.7 0.00 0.00 0.00 37 1006.9
20260503173025 18 347 14.5 25.7 0.00 0.00 0.00 39 1007.0
20260503171521 17 334 11.3 25.7 0.00 0.00 0.00 39 1007.1
20260503081513 11 332 20.9 30.6 0.00 0.00 0.00 58 1005.4
20260503071507 11 308 22.5 30.6 0.00 0.00 0.00 58 1004.9
20260503054551 15 273 16.1 22.5 0.00 0.00 0.00 48 1004.3
20260503053041 15 287 9.7 19.3 0.00 0.00 0.00 47 1004.3
20260503051538 15 262 9.7 17.7 0.00 0.00 0.00 46 1004.3
20260503050037 15 246 12.9 17.7 0.00 0.00 0.00 46 1004.4
20260503044533 14 233 12.9 19.3 0.00 0.00 0.00 51 1004.4
20260503043033 14 248 12.9 20.9 0.00 0.00 0.00 50 1004.5
20260503041532 15 265 16.1 20.9 0.00 0.00 0.00 49 1004.5
20260503040036 15 249 11.3 19.3 0.00 0.00 0.00 48 1004.5
20260503034536 15 245 11.3 16.1 0.00 0.00 0.00 47 1004.6
20260503033032 16 198 14.5 22.5 0.00 0.00 0.00 43 1004.5
20260503031530 16 173 16.1 20.9 0.00 0.00 0.00 44 1004.6
20260503030028 15 186 16.1 20.9 0.00 0.00 0.00 46 1004.7
20260503024527 16 195 12.9 22.5 0.00 0.00 0.00 45 1004.9
20260503023025 18 195 22.5 40.2 0.00 0.00 0.00 39 1005.2
20260503021524 16 255 9.7 17.7 0.00 0.00 0.00 44 1005.2
20260503020024 17 253 6.4 14.5 0.00 0.00 0.00 40 1005.2
20260503014537 18 222 12.9 20.9 0.00 0.00 0.00 36 1005.4
20260503013026 18 255 25.7 40.2 0.00 0.00 0.00 37 1005.8
20260503011521 17 297 4.8 20.9 0.00 0.00 0.00 33 1005.6
20260503010021 17 205 16.1 24.1 0.00 0.00 0.00 34 1005.5
20260503004521 18 205 17.7 33.8 0.00 0.00 0.00 33 1005.4
20260503003020 18 195 22.5 32.2 0.00 0.00 0.00 30 1005.6
20260503001518 19 210 22.5 30.6 0.00 0.00 0.00 29 1005.9
20260503000016 19 202 22.5 35.4 0.00 0.00 0.00 29 1006.4
20260502234511 18 208 20.9 32.2 0.00 0.00 0.00 27 1006.7
20260502233010 19 193 27.4 38.6 0.00 0.00 0.00 27 1007.0
20260502231507 20 226 29.0 41.8 0.00 0.00 0.00 25 1007.3
20260502230008 20 233 27.4 41.8 0.00 0.00 0.00 28 1007.4
20260502224506 19 222 24.1 32.2 0.00 0.00 0.00 29 1007.9
20260502223003 18 223 20.9 38.6 0.00 0.00 0.00 31 1008.3
20260502221604 18 205 27.4 41.8 0.00 0.00 0.00 29 1008.4
20260502220104 20 204 20.9 37.0 0.00 0.00 0.00 29 1008.8
20260502214606 20 207 27.4 45.1 0.00 0.00 0.00 28 1009.1
20260502213055 20 200 27.4 38.6 0.00 0.00 0.00 29 1009.2
20260502211551 19 213 20.9 38.6 0.00 0.00 0.00 29 1009.5
20260502210049 20 228 29.0 46.7 0.00 0.00 0.00 27 1009.7
20260502204551 20 225 27.4 38.6 0.00 0.00 0.00 30 1010.0
20260502203054 18 193 17.7 27.4 0.00 0.00 0.00 31 1010.2
20260502201544 17 172 25.7 49.9 0.00 0.00 0.00 33 1010.8
20260502200042 18 223 22.5 32.2 0.00 0.00 0.00 32 1011.2